Regional Weather Roundup
Issued by NWS

Home | Current Version | Previous Version | Text Only | Print | Product List | Glossary On
Versions: 1 2 3 4 5 6 7 8 9 10 11 12 13 14 15 16 17 18 19 20 21 22 23 24 25 26 27 28 29 30 31 32 33 34 35 36 37 38 39 40 41 42 43 44 45 46 47 48 49 50
000
ASUS45 KTFX 300510
RWRMT
MONTANA REGIONAL WEATHER ROUNDUP
NATIONAL WEATHER SERVICE GREAT FALLS MT
1100 PM MDT FRI MAY 29 2015

NOTE: "FAIR" INDICATES FEW OR NO CLOUDS BELOW 12000 FEET WITH NO
SIGNIFICANT WEATHER AND/OR OBSTRUCTIONS TO VISIBILITY.

MTZ001>007-043-300600-
WEST OF THE DIVIDE

CITY           SKY/WX    TMP DP  RH WIND       PRES   REMARKS
KALISPELL      PTCLDY    58  53  84 NW5       29.99R
MISSOULA       PTCLDY    57  47  69 CALM      30.02R
BUTTE          PTCLDY    58  46  64 SW6       30.13S
MULLAN PASS    PTCLDY    57  44  62 S5        30.10S
DEER LODGE       N/A     54  48  82 W7        30.13F
EUREKA           N/A     54  52  94 CALM      30.03S
HAMILTON         N/A     57  48  72 S2        30.03R
LIBBY            N/A     59  54  82 CALM      29.99R
PLAINS           N/A     59  52  77 CALM      29.99R
RONAN            N/A     53  47  80 CALM      30.05R
THOMPSON FALLS   N/A     60  53  77 CALM      30.01R
$$

MTZ008-052>055-300600-
SOUTHWEST MONTANA

CITY           SKY/WX    TMP DP  RH WIND       PRES   REMARKS
BOZEMAN        MOCLDY    52  47  83 SE9       30.11R
DILLON         MOCLDY    59  43  55 CALM      30.13R
W YELLOWSTONE  PTCLDY    48  39  71 SW5       30.23S
THREE FORKS      N/A     57  57 100 S14       30.11R
$$

MTZ009-010-012-014-046-048-049-054-300600-
EAST SLOPES AND CENTRAL MONTANA

CITY           SKY/WX    TMP DP  RH WIND       PRES   REMARKS
CUT BANK       CLOUDY    54  45  71 SE8       30.10R
GREAT FALLS    CLOUDY    57  47  69 SE12      30.07S
MALMSTROM AFB  MOCLDY    57  47  70 SE17      30.08R
HELENA         MOCLDY    56  50  80 SW5       30.09S
CONRAD           N/A     54  50  86 NE7       30.11S
$$

MTZ011-013-016-021-045-047-050-051-300600-
NORTH CENTRAL MONTANA

CITY           SKY/WX    TMP DP  RH WIND       PRES   REMARKS
HAVRE          MOCLDY    53  39  59 E18       30.12S
LEWISTOWN      PTCLDY    49  43  80 SE7       30.14F
N BAR RANCH    MOCLDY    50  45  81 SE7       30.21F
CHINOOK          N/A     52  36  54 E12G17    30.16S
FORT BENTON      N/A     59  46  63 NE8       30.08S
$$

MTZ017>020-022>027-061-062-300600-
NORTHEAST MONTANA

CITY           SKY/WX    TMP DP  RH WIND       PRES   REMARKS
GLASGOW        CLEAR     48  34  58 E10       30.23F
JORDAN           N/A     47  36  65 E7        30.22S
SIDNEY         CLEAR     45  30  57 CALM      30.28F
WOLF POINT     PTCLDY    45  34  65 E5        30.26F
MALTA            N/A     49  32  52 CALM      30.16F
PLENTYWOOD       N/A     45  28  53 NE8       30.29S
POPLAR           N/A     48  32  53 E8        30.27F
SCOBEY           N/A     43  29  58 NE3       30.24F
$$

MTZ028>42-056>058-300600-
SOUTHCENTRAL AND SOUTHEAST MONTANA

CITY           SKY/WX    TMP DP  RH WIND       PRES   REMARKS
BAKER          CLEAR     39  33  79 SE7       30.27S
BILLINGS       PTCLDY    53  45  74 E6        30.17F
LIVINGSTON     CLOUDY    52  45  77 E8        30.17F
MILES CITY     CLEAR     50  32  50 E7        30.22F
BIG TIMBER       N/A     54  46  76 NE5       30.20S
EKALAKA          N/A     45  32  60 SE8       30.21F
LAUREL           N/A     52  45  77 NE2       30.14F
ROUNDUP          N/A     51  39  63 CALM      30.09F
$$

REGIONAL REPORTS...DAKOTAS

CITY           SKY/WX    TMP DP  RH WIND       PRES   REMARKS
WILLISTON      CLEAR     47  32  56 NE6       30.29S
MINOT          CLEAR     43  33  68 NE10      30.31R
DICKINSON      CLEAR     41  33  73 SE6       30.28S
BEACH          FAIR      39  37  93 E8        30.29R
CROSBY         FAIR      37  34  87 E6        30.32S
WATFORD CITY   FAIR      41  36  81 N3        30.28S
BISMARCK       CLEAR     47  34  60 NW7       30.30S
GRAND FORKS    CLEAR     40  30  67 N12       30.32R
FARGO          MOCLDY    45  34  65 N17       30.27R
BUFFALO SD       N/A     42  35  76 E9        30.22S
RAPID CITY     CLEAR     41  36  82 CALM      30.30R
$$

REGIONAL REPORTS...WYOMING/IDAHO/WASHINGTON

CITY           SKY/WX    TMP DP  RH WIND       PRES   REMARKS
GILLETTE       CLEAR     42  37  82 CALM      30.25F
SHERIDAN       CLEAR     45  43  93 S5        30.20F
BUFFALO WY       N/A    N/A N/A N/A MISG      30.24F
CODY           PTCLDY    52  48  87 CALM      30.19S
YELLOWSTONE LA   N/A     38  36  92 CALM      30.32R
IDAHO FALLS    CLEAR     52  47  83 CALM      30.15R
SALMON         CLOUDY    64  45  48 CALM      30.06R
BOISE          MOCLDY    74  38  27 SE9       29.95S
SPOKANE        MOCLDY    61  52  72 NE12      29.96R
$$

REGIONAL REPORTS...ALBERTA

CITY           SKY/WX    TMP DP  RH WIND       PRES   REMARKS
EDMONTON       CLOUDY    52  34  50 E12       30.17F
CALGARY        MOCLDY    48  37  66 SE12      30.14S
LETHBRIDGE     CLOUDY    54  52  94 N6        30.09F
MEDICINE HAT   PTCLDY    55  36  47 E9        30.12R
$$

REGIONAL REPORTS...SASKATCHEWAN

CITY           SKY/WX    TMP DP  RH WIND       PRES   REMARKS
SWIFT CURRENT  CLOUDY    48  25  40 E16G22    30.24F
REGINA         PTCLDY    43  25  49 NE8       30.34S
SASKATOON      MOCLDY    46  25  42 SE14      30.34S
$$



USA.gov is the U.S. government's official web portal to all federal, state and local government web resources and services.